SCP
0 0 0 0 0 0 0 0 0 0 0 0 0 0 0 0 0 0 0 0 0 0 0 0 0 0 0 0 0 0 0 0 0 0 0 0 0 0 0 0 0 0 0
0 0 0 0 0 0 0 0 0 0 0 0 0 0 0 0 0 0 0 0 0 0 0 0 0 0 0 0 0 0 0 0 0 0 0 0 0 0 0 0 0 0 0
0 0 0 0 0 0 0 0 0 0 0 0 0 0 0 0 0 0 0 0 0 0 0 0 0 0 0 0 0 0 0 0 0 0 0 0 0 0 0 0 0 0 0
0 0 0 0 0 0 0 0 0 0 0 0 0 0 0 0 0 0 0 0 0 0 0 0 0 0 0 0 0 0 0 0 0 0 0 0 0 0 0 0 0 0 0
0 0 0 0 0 0 0 0 0 0 0 0 0 0 0 0 0 0 0 0 0 0 0 0 0 0 0 0 0 0 0 0 0 0 0 0 0 0 0 0 0 0 0
0 0 0 0 0 0 0 0 0 0 0 0 0 0 0 0 0 0 0 0 0 0 0 0 0 0 0 0 0 0 0 0 0 0 0 0 0 0 0 0 0 0 0
0 0 0 0 0 0 0 0 0 0 0 0 0 0 0 0 0 0 0 0 0 0 0 0 0 0 0 0 0 0 0 0 0 0 0 0 0 0 0 0 0 0 0
0 0 0 0 0 0 0 0 0 0 0 0 0 0 0 0 0 0 0 0 0 0 0 0 0 0 0 0 0 0 0 0 0 0 0 0 0 0 0 0 0 0 0
0 0 0 0 0 0 0 0 0 0 0 0 0 0 0 0 0 0 0 0 0 0 0 0 0 0 0 0 0 0 0 0 0 0 0 0 0 0 0 0 0 0 0
0 0 0 0 0 0 0 0 0 0 0 0 0 0 0 0 0 0 0 0 0 0 0 0 0 0 0 0 0 0 0 0 0 0 0 0 0 0 0 0 0 0 0
0 0 0 0 0 0 0 0 0 0 0 0 0 0 0 0 0 0 0 0 0 0 0 0 0 0 0 0 0 0 0 0 0 0 0 0 0 0 0 0 0 0 0
0 0 0 0 0 0 0 0 0 0 0 0 0 0 0 0 0 0 0 0 0 0 0 0 0 0 0 0 0 0 0 0 0 0 0 0 0 0 0 0 0 0 0
0 0 0 0 0 0 0 0 0 0 0 0 0 0 0 0 0 0 0 0 0 0 -0 -0 -0 -0 0 0 0 0 0 0 0 0 0 0 0 0 0 0 0 0 0
0 0 0 0 0 0 0 0 0 0 0 0 0 0 0 0 0 0 0 0 0 0 -0 -0 -0 -0 -0 0 0 0 0 0 0 0 0 0 0 0 0 0 0 0 0
0 0 0 0 0 0 0 0 0 0 0 0 0 0 0 0 0 0 0 0 0 0 0 -0 -0 -0 -0 -0 0 0 0 0 0 0 0 0 0 0 0 0 0 0 0
0 0 0 0 0 0 0 0 0 0 0 0 0 0 0 0 0 0 0 0 0 0 0 0 -0 -0 -0 -0 -0 0 0 0 0 0 0 0 0 0 0 0 0 0 0
0 0 0 0 0 0 0 0 0 0 0 0 0 0 0 0 0 0 0 0 0 0 0 0 0 -0 -0 -0 -0 -0 0 0 0 0 0 0 0 0 0 0 0 0 0
0 0 0 0 0 0 0 0 0 0 0 0 0 0 0 0 0 0 0 0 0 0 0 0 0 -0 -0 -0 -0 -0 -0 0 0 0 0 0 0 0 0 0 0 0 0
0 0 0 0 0 0 0 0 0 0 0 0 0 0 0 0 0 0 0 0 0 0 0 0 0 0 0 -0 -0 -0 -0 -0 0 0 0 0 0 0 0 0 0 0 0
0 0 0 0 0 0 0 0 0 0 0 0 0 0 0 0 0 0 0 0 0 0 0 0 0 0 0 0 -0 -0 -0 -0 0 0 0 0 0 0 0 0 0 0 0
0 0 0 0 0 0 0 0 0 0 0 0 0 0 0 0 0 0 0 0 0 0 0 0 0 0 0 0 -0 -0 -0 -0 -0 -0 0 0 0 0 0 0 0 0 0
0 0 0 0 0 0 0 0 0 0 0 0 0 0 0 0 0 0 0 0 0 0 0 0 0 0 0 0 0 -0 -0 -0 -0 -0 0 0 0 0 0 0 0 0 0
0 0 0 0 0 0 0 0 0 0 0 0 0 0 0 0 0 0 0 0 0 0 0 0 0 0 0 0 0 0 0 -0 -0 0 0 0 0 0 0 0 0 0 0
0 0 0 0 0 0 0 0 0 0 0 0 0 0 0 0 0 0 0 0 0 0 0 0 0 0 0 0 0 0 0 0 0 0 0 0 0 0 0 0 0 0 0
0 0 0 0 0 0 0 0 0 0 0 0 0 0 0 0 0 0 0 0 0 0 0 0 0 0 0 0 0 0 0 0 0 0 0 0 0 0 0 0 0 0 0
0 0 0 0 0 0 0 0 0 0 0 0 0 0 0 0 0 0 0 0 0 0 0 0 0 0 0 0 0 0 0 0 0 0 0 0 0 0 0 0 0 0 0
Wind_Speed
3 2 2 2 3 2 3 3 3 4 5 4 5 5 5 4 4 4 3 8 9 10 10 11 11 11 11 11 12 12 11 11 11 10 10 10 10 10 10 10 10 10 10
3 3 3 2 2 2 3 3 3 4 4 4 5 5 5 4 4 4 4 5 8 9 9 10 11 11 11 11 12 11 11 10 10 10 9 9 9 9 10 10 10 9 9
3 3 3 2 2 3 4 4 3 4 4 4 5 5 4 4 4 5 4 3 4 7 9 9 10 10 10 11 11 11 11 10 10 9 9 9 9 9 9 9 9 8 8
3 3 3 2 2 3 3 4 3 4 4 4 4 3 3 4 5 5 5 4 3 4 6 9 9 9 9 10 10 10 10 9 9 9 9 8 8 7 7 7 7 7 7
3 3 3 2 3 3 3 4 3 4 5 4 4 4 3 3 4 5 5 5 4 4 4 6 9 9 9 9 9 9 8 8 8 8 7 7 7 6 6 6 6 5 5
3 3 3 3 3 3 3 3 4 3 4 5 5 5 4 3 4 4 4 4 4 5 4 5 4 5 7 8 7 7 7 7 6 6 6 6 6 5 5 5 4 5 5
3 3 3 4 4 3 4 4 4 5 4 4 5 4 4 4 4 3 3 3 4 4 4 4 3 3 3 6 6 6 6 6 5 5 5 5 5 5 5 5 5 5 5
3 3 3 3 4 4 4 5 5 3 3 3 4 5 3 2 2 3 2 3 3 3 4 4 3 3 2 2 4 6 5 5 5 5 4 4 4 4 4 5 5 4 5
3 3 3 3 3 4 5 5 5 5 5 2 2 4 5 4 1 1 2 2 2 2 2 2 3 2 2 2 1 3 5 4 4 4 4 3 3 4 4 4 4 5 5
2 3 3 3 4 3 4 4 4 2 5 4 1 1 2 4 5 2 0 1 1 1 1 1 1 1 2 1 2 4 4 4 3 3 3 3 4 3 3 4 4 4 5
2 2 3 3 3 3 4 4 3 2 3 4 3 2 2 2 2 4 3 1 0 1 0 0 0 1 2 2 1 3 4 4 3 2 3 3 3 4 4 4 4 4 5
1 2 3 3 3 3 4 4 4 3 3 4 3 2 3 3 3 3 3 3 2 1 1 0 1 1 1 1 2 4 4 4 3 3 3 4 4 4 4 5 5 5 5
2 3 3 3 3 3 3 3 4 3 4 4 4 2 2 2 3 3 4 3 1 0 0 1 1 1 0 0 1 3 3 3 4 4 3 4 5 5 5 5 6 6 6
3 3 4 4 3 3 3 3 3 3 3 4 3 3 2 2 2 3 4 4 2 1 1 2 0 1 0 0 1 2 2 3 4 4 4 4 5 5 6 6 6 7 7
3 3 3 4 4 4 4 4 3 3 3 3 3 3 2 2 2 2 2 4 5 4 3 2 1 1 1 0 1 1 2 3 3 4 4 5 5 5 5 5 6 7 7
3 3 4 4 4 4 4 4 3 3 4 3 2 3 2 1 2 2 3 2 2 3 3 2 2 1 1 1 2 1 2 3 3 4 5 5 4 4 5 6 6 7 7
3 4 4 4 4 4 4 4 4 5 5 4 3 4 3 2 2 2 2 2 2 2 2 1 1 1 1 1 2 1 1 2 2 4 5 5 5 5 5 6 7 7 8
3 4 4 5 5 5 5 5 5 5 5 5 4 4 4 3 3 3 3 3 3 3 3 3 2 1 2 2 1 1 2 2 2 4 4 5 6 6 6 6 7 7 8
3 3 3 4 5 5 5 5 6 6 6 6 5 5 5 5 4 3 4 4 3 2 2 3 2 1 1 1 1 1 2 1 2 3 4 4 6 7 7 7 7 7 7
3 3 3 4 4 5 5 5 5 5 5 5 5 5 5 6 6 5 5 5 4 3 3 3 2 2 1 2 1 1 2 1 2 3 3 4 5 6 7 7 8 8 7
2 2 3 3 3 3 4 5 5 5 5 5 4 5 5 6 7 6 5 5 5 4 3 3 3 2 2 2 3 2 2 2 2 2 1 2 3 3 3 6 7 7 7
1 1 2 3 3 3 4 6 5 4 5 5 5 4 4 5 7 8 8 8 7 6 6 5 4 5 5 4 2 2 2 1 2 1 1 3 2 3 3 2 6 7 7
2 2 2 3 3 3 4 5 5 4 4 4 5 4 4 4 4 4 5 6 6 7 8 6 6 6 6 5 5 4 3 3 3 2 1 3 2 3 3 4 7 7 7
3 3 3 3 3 3 4 5 5 3 3 4 4 5 5 4 4 4 4 4 4 4 5 5 5 5 5 5 6 5 4 2 2 2 2 3 2 3 4 3 6 6 7
2 2 3 3 3 3 5 5 4 3 3 3 4 4 5 5 7 7 5 5 4 3 4 5 6 6 7 7 5 3 3 2 2 2 1 2 2 3 3 3 3 6 7
2 2 2 2 3 3 5 5 4 2 3 3 2 3 5 6 7 8 5 5 5 4 3 3 3 3 3 4 5 4 4 3 2 3 2 1 1 1 3 2 2 2 4
Wind_Direction
129 127 122 114 111 111 109 102 107 103 99 96 92 90 85 82 85 78 72 75 84 93 100 102 102 103 103 104 101 98 96 95 94 91 87 85 82 79 76 74 72 68 66
134 132 127 122 118 117 117 112 113 110 104 101 94 90 87 80 83 80 73 70 72 82 94 102 102 101 102 102 99 98 96 96 94 93 91 88 85 80 76 74 72 67 64
137 138 136 133 132 125 120 112 102 109 105 98 94 90 88 80 82 79 71 64 63 69 80 90 97 100 101 101 98 96 92 89 89 89 90 91 88 83 79 75 72 66 62
136 136 137 138 138 131 126 126 117 119 109 105 100 89 83 83 81 78 71 64 57 56 65 75 80 89 95 97 97 95 92 88 84 82 82 84 83 81 77 73 68 66 61
137 140 138 138 139 132 128 134 125 132 125 115 107 90 78 82 82 79 73 66 62 58 57 65 68 72 78 84 87 91 90 88 83 81 78 75 74 73 69 66 66 61 56
139 137 139 144 143 138 127 129 131 126 130 127 110 88 69 67 74 75 77 69 64 61 58 56 54 54 63 73 79 83 84 85 83 81 78 74 68 64 65 62 58 54 44
144 140 145 149 148 148 147 139 133 134 124 126 110 93 56 51 61 65 71 76 67 60 60 57 53 48 49 55 65 76 81 80 78 76 72 68 66 62 56 50 44 40 29
152 151 143 157 157 149 145 147 141 142 142 147 135 128 113 51 27 42 57 80 72 62 61 57 59 55 53 43 43 60 66 69 65 65 66 64 58 52 44 36 28 23 18
153 147 150 161 160 157 161 164 158 153 158 167 138 143 150 172 161 19 37 71 78 71 58 55 59 52 57 49 28 41 53 57 59 53 52 49 42 36 26 16 14 12 5
148 141 151 164 160 159 162 171 165 163 159 163 163 77 117 142 149 153 346 29 62 74 55 49 49 53 54 52 48 49 52 47 45 40 35 33 24 9 4 0 354 353 355
156 146 151 162 163 167 163 166 160 158 164 162 161 152 110 95 104 144 168 192 24 10 355 30 87 64 41 34 34 41 38 36 29 13 6 2 352 352 352 339 336 341 343
174 168 163 164 170 173 167 172 169 170 171 158 152 152 148 152 158 142 154 172 188 239 312 282 140 117 55 21 27 30 25 23 16 8 358 351 343 339 341 344 341 328 329
192 193 178 175 181 179 167 169 169 183 176 166 167 172 165 161 149 143 140 147 152 201 246 271 217 174 118 18 349 9 7 4 359 351 342 347 353 351 348 344 341 338 327
205 193 185 178 178 175 171 172 173 191 179 177 177 167 170 176 158 154 149 146 143 185 224 241 308 204 212 335 351 1 340 350 348 346 338 341 352 353 347 348 344 340 338
197 187 186 180 175 179 178 175 182 189 179 186 183 177 179 186 170 162 150 154 157 179 215 212 211 232 258 279 306 326 326 325 335 338 336 335 338 342 342 343 341 338 336
191 185 187 185 178 180 180 175 186 186 178 189 183 176 185 191 175 167 162 164 163 167 198 204 209 236 233 280 284 297 288 314 321 334 335 332 325 330 332 332 330 330 329
193 192 193 190 188 185 182 185 193 180 184 192 192 189 197 188 182 179 169 168 165 152 188 233 203 216 204 240 287 289 282 276 289 314 318 328 330 333 332 327 324 324 323
199 193 192 191 195 193 191 198 195 187 189 197 199 195 203 195 195 190 180 184 184 174 170 197 212 206 227 223 233 265 292 301 302 304 315 322 325 324 328 327 327 326 324
206 192 187 194 198 198 200 203 197 192 195 200 199 201 203 194 203 201 192 192 189 182 165 173 206 207 221 218 228 268 287 298 304 304 308 314 315 318 318 319 319 320 322
209 201 202 203 201 201 202 199 196 195 198 202 202 206 205 202 205 203 201 194 185 176 168 171 188 198 204 210 195 226 282 292 300 303 304 313 315 317 315 312 311 311 312
219 209 205 204 203 204 204 197 194 195 196 200 204 210 213 212 213 212 211 197 186 184 184 189 198 198 203 196 211 210 251 288 291 273 299 300 304 302 307 307 308 307 308
215 200 203 200 203 214 213 211 207 198 199 202 208 213 215 216 221 226 226 218 204 196 196 199 211 210 214 210 206 213 220 247 269 249 279 292 287 285 290 287 306 309 310
209 205 209 201 209 222 219 218 221 209 202 206 208 208 219 219 221 213 223 228 225 222 214 211 211 214 209 202 196 210 219 226 245 245 252 274 272 278 284 297 308 313 317
214 213 219 212 214 224 223 220 220 207 200 208 212 209 209 208 211 209 201 210 220 226 223 219 217 216 215 204 202 208 215 232 270 255 226 259 271 277 295 295 306 316 323
223 223 221 211 212 225 226 224 216 199 208 213 216 211 207 206 213 215 206 204 218 230 236 229 229 228 224 222 211 180 186 210 260 256 220 233 266 297 294 284 298 316 319
229 232 235 221 210 215 225 229 225 208 210 213 213 211 215 216 218 215 206 199 211 217 205 215 222 228 219 214 216 203 190 204 230 252 220 215 251 308 299 283 294 309 309